Regional Weather Roundup
Issued by NWS Portland, ME

Home | Current Version | Previous Version | Text Only | Print | Product List | Glossary On
Versions: 1 2 3 4 5 6 7 8 9 10 11 12 13 14 15 16 17 18 19 20 21 22 23 24 25 26 27 28 29 30 31 32 33 34 35 36 37 38 39 40 41 42 43 44 45 46 47 48 49 50
000
ASUS41 KGYX 120910
RWRGYX
WEATHER ROUNDUP FOR MAINE AND NEW HAMPSHIRE
NATIONAL WEATHER SERVICE GRAY ME
400 AM EST FRI FEB 12 2016

MEZ002-005-006-010-012-015-018-020-021-024-026-027-029-121000-
MAINE

CITY           SKY/WX    TMP DP  RH WIND       PRES   REMARKS
PORTLAND       PTCLDY     2 -10  57 W8        30.05R
SANFORD        PTCLDY     1 -11  55 SW8       30.04R
BAR HARBOR     CLEAR      1  -8  66 NW6       29.96R
WISCASSET      PTCLDY     1 -11  57 VRB3      30.04R
ROCKLAND       CLEAR      0 -12  57 W8        29.99R
FRYEBURG       CLEAR      3 -13  47 W9G17     29.98R
LEWISTONAUBURN CLEAR      1 -15  46 NW9G17    29.99R
AUGUSTA        CLEAR      0 -14  51 W6        29.99R
WATERVILLE     CLEAR      0 -13  54 NW12      29.95R WCI -17
BANGOR         PTCLDY     0 -11  59 NW6       29.96R
GREENVILLE       N/A     -6 -13  71 NW12G21   29.78R WCI -25
MILLINOCKET    PTCLDY     1 -12  54 W15G25    29.90R WCI -18
HOULTON        CLEAR      0  -9  65 NW10      29.83R WCI -16
PRESQUE ISLE   FLURRIES   1  -5  75 W12       29.83R WCI -16
FRENCHVILLE    CLOUDY    -3 -10  72 NW10      29.75R WCI -20
CARIBOU        CLEAR     -3  -8  79 W3        29.80R
$$

NHZ002-005-008-009-011-012-014-121000-
NEW HAMPSHIRE

CITY           SKY/WX    TMP DP  RH WIND       PRES   REMARKS
PORTSMOUTH     PTCLDY     4 -11  51 W15       30.09R WCI -15
ROCHESTER      CLEAR      2 -12  52 W9G20     30.04R
NASHUA         CLEAR      1  -8  66 CALM      30.13R
MANCHESTER     CLEAR      5  -7  57 W5        30.10R
CONCORD        CLEAR      3 -11  52 NW14G21   30.09R WCI -15
LACONIA        CLEAR      1 -11  55 W6        30.06S
PLYMOUTH       FAIR       1  -9  61 W10G18    30.06R WCI -15
BERLIN         CLOUDY    -3 -12  65 N5        29.98R HAZE
WHITEFIELD     CLEAR     -5 -11  75 SW6       30.02S
JAFFREY        CLEAR      2 -10  57 W16G23    30.03R WCI -18
KEENE          CLEAR      1 -11  55 CALM      30.10R
LEBANON        CLEAR     -2  -9  72 CALM      30.09R
MT WASHINGTON  BLWGSNOW -22 -22 100 W62         N/A  VSB 1/8 WCI -65
$$

VTZ005-007-008-121000-
VERMONT

CITY           SKY/WX    TMP DP  RH WIND       PRES   REMARKS
ST JOHNSBURY     N/A      0 -10  63 MISG      30.05S
MONTPELIER     FAIR      -3  -9  75 NW8       30.06S
BURLINGTON     CLOUDY     4  -8  57 NW8       30.13F
$$

MAZ007-012-024-CTZ003-RIZ002-NYZ038-NYZ072-121000-
SOUTHERN NEW ENGLAND AND NY

CITY           SKY/WX    TMP DP  RH WIND       PRES   REMARKS
BOSTON         CLEAR      8  -7  50 W13G29    30.14R WCI  -8
WORCESTER      CLEAR      1 -10  60 W9        30.05R
NANTUCKET      PTCLDY    15   0  51 NW20G32   30.12R WCI  -2
PROVIDENCE     CLEAR      9  -7  48 W10       30.17R WCI  -5
HARTFORD       CLEAR      7  -5  57 W6        30.18R
ALBANY         PTCLDY     6  -4  63 W6        30.18F
NEW YORK CITY  CLEAR     18   0  45 NW14      30.24S WCI   4
$$

ANZ081-ANZ082-ANZ150-NHZ014-MEZ023>029-121000-
COASTAL MARINE OBSERVATIONS

STATION/POSITION TIME  TEMP    WIND        PRES    WAVE
                       AIR SEA DIR/SP/G            HT/PER
                 (UTC) (F)     (DEG/KT/KT) (MB)    (FT/S)
MOUNT DESERT ROC 0900    9     310/ 31/ 35 1013.9R
MATINICUS ROCK   0900          300/ 25/ 29 1015.3R
ISLE OF SHOALS   0900    6     280/ 29/ 33 1017.4R
JEFFREYS LEDGE   0804      43                N/A     8/ 6
CASHES LEDGE BUO 0850   15 42  300/ 25/ 31 1015.2R   8/ 7
GEORGES BANK BUO 0750   28 44              1012.6   17/10
$$

.............KEY..............
   WCI - WIND CHILL
   TC  - TEMPERATURE IN CELSIUS
   VSB - VISIBILITY IN MILES
   HX  - HEAT INDEX
   FAIR- INDICATES FEW OR NO CLOUDS BELOW 12,000 FT, WITH NO
         SIGNIFICANT WEATHER AND/OR OBSTRUCTIONS TO VISIBILITY.





USA.gov is the U.S. government's official web portal to all federal, state and local government web resources and services.